IW0HP-3 Weather Reports


time (UTC)temp
F
wind
direction
speed
knots
gust
knots
rain 1hr
in
rain 24hr
in
rain mn
in
humidity
%
barometer
mb
20260507225047 65 0.0 0.0 0.00 0.00 0.00 60 1011.1
20260507223042 66 0.0 0.0 0.00 0.00 0.00 59 1011.1
20260507221036 66 0.0 0.0 0.00 0.00 0.00 61 1011.3
20260507213026 67 0.0 0.0 0.00 0.00 0.00 68 1011.5
20260507211020 67 0.0 0.0 0.00 0.00 0.00 68 1011.5
20260507205016 67 0.0 0.0 0.00 0.00 0.00 67 1011.5
20260507203011 68 0.0 0.0 0.00 0.00 0.00 66 1011.6
20260507201005 68 0.0 0.0 0.00 0.00 0.00 64 1011.8
20260507195000 68 0.0 0.0 0.00 0.00 0.00 64 1011.6
20260507192955 69 0.0 0.0 0.00 0.00 0.00 63 1011.5
20260507190950 69 0.0 0.0 0.00 0.00 0.00 61 1011.5
20260507184944 69 0.0 0.0 0.00 0.00 0.00 59 1011.3
20260507182939 70 0.0 0.0 0.00 0.00 0.00 57 1011.2
20260507180934 70 0.0 0.0 0.00 0.00 0.00 55 1011.3
20260507174928 72 0.0 0.0 0.00 0.00 0.00 55 1011.1
20260507172923 74 0.0 0.0 0.00 0.00 0.00 52 1011.1
20260507170917 76 0.0 0.0 0.00 0.00 0.00 47 1011.0
20260507164912 75 0.0 0.0 0.00 0.00 0.00 40 1011.4
20260507162905 76 0.0 0.0 0.00 0.00 0.00 39 1011.5
20260507154854 76 0.0 0.0 0.00 0.00 0.00 38 1011.5
20260507152849 76 0.0 0.0 0.00 0.00 0.00 37 1011.8
20260507150844 75 0.0 0.0 0.00 0.00 0.00 40 1011.8
20260507144839 74 0.0 0.0 0.00 0.00 0.00 39 1012.1
20260507142833 73 0.0 0.0 0.00 0.00 0.00 43 1011.8
20260507140829 72 0.0 0.0 0.00 0.00 0.00 44 1012.2
20260507134823 72 0.0 0.0 0.00 0.00 0.00 45 1012.5
20260507132818 72 0.0 0.0 0.00 0.00 0.00 46 1012.8
20260507130813 72 0.0 0.0 0.00 0.00 0.00 48 1013.0
20260507124807 72 0.0 0.0 0.00 0.00 0.00 49 1013.2
20260507122803 72 0.0 0.0 0.00 0.00 0.00 50 1013.3
20260507114751 72 0.0 0.0 0.00 0.00 0.00 50 1013.5
20260507112747 71 0.0 0.0 0.00 0.00 0.00 51 1013.7
20260507110741 71 0.0 0.0 0.00 0.00 0.00 53 1013.9
20260507104736 71 0.0 0.0 0.00 0.00 0.00 54 1014.1
20260507102730 70 0.0 0.0 0.00 0.00 0.00 56 1014.2
20260507100726 69 0.0 0.0 0.00 0.00 0.00 56 1014.6
20260507094720 68 0.0 0.0 0.00 0.00 0.00 57 1014.6
20260507092715 69 0.0 0.0 0.00 0.00 0.00 57 1014.6
20260507090710 68 0.0 0.0 0.00 0.00 0.00 58 1014.5
20260507084704 68 0.0 0.0 0.00 0.00 0.00 61 1014.6
20260507082659 67 0.0 0.0 0.00 0.00 0.00 61 1014.6
20260507080654 66 0.0 0.0 0.00 0.00 0.00 62 1015.0
20260507072643 65 0.0 0.0 0.00 0.00 0.00 65 1015.1
20260507070637 65 0.0 0.0 0.00 0.00 0.00 67 1015.2
20260507064632 64 0.0 0.0 0.00 0.00 0.00 69 1015.1
20260507062627 63 0.0 0.0 0.00 0.00 0.00 71 1015.0
20260507060623 63 0.0 0.0 0.00 0.00 0.00 70 1014.8
20260507054616 62 0.0 0.0 0.00 0.00 0.00 75 1014.9
20260507052611 61 0.0 0.0 0.00 0.00 0.00 78 1014.9
20260507050607 60 0.0 0.0 0.00 0.00 0.00 79 1014.9
20260507044601 60 0.0 0.0 0.00 0.00 0.00 79 1014.7
20260507040550 60 0.0 0.0 0.00 0.00 0.00 79 1014.7
20260507034545 60 0.0 0.0 0.00 0.00 0.00 81 1014.6
20260507032540 60 0.0 0.0 0.00 0.00 0.00 79 1014.7
20260507030534 60 0.0 0.0 0.00 0.00 0.00 80 1014.5
20260507024529 60 0.0 0.0 0.00 0.00 0.00 80 1014.6
20260507022523 60 0.0 0.0 0.00 0.00 0.00 80 1014.8
20260507020518 60 0.0 0.0 0.00 0.00 0.00 81 1014.7
20260507014514 60 0.0 0.0 0.00 0.00 0.00 81 1014.7
20260507012508 60 0.0 0.0 0.00 0.00 0.00 80 1014.5
20260507010502 60 0.0 0.0 0.00 0.00 0.00 79 1014.5
20260507004457 61 0.0 0.0 0.00 0.00 0.00 78 1014.7
20260507002452 61 0.0 0.0 0.00 0.00 0.00 75 1014.8
20260507000446 62 0.0 0.0 0.00 0.00 0.00 72 1014.5
20260506234441 62 0.0 0.0 0.00 0.00 0.00 72 1014.5
20260506232436 63 0.0 0.0 0.00 0.00 0.00 74 1014.5
20260506230431 63 0.0 0.0 0.00 0.00 0.00 75 1014.4